Harbor Springs, MI

8:38 PM EST on January 20, 2017 (GMT -0500)
Harbor Springs

Weather History for KMGN - December, 2013

Change the Weather History Date:

Monday, December 30, 2013

  Actual Average (KPLN) Record (KPLN)
Temperature  
Mean Temperature 10 °F -  
Max Temperature 14 °F 26 °F 42 °F (1965)
Min Temperature 6 °F 10 °F - (1998)
Degree Days  
Heating Degree Days 55    
Moisture  
Dew Point 6 °F    
Average Humidity 81    
Maximum Humidity 89    
Minimum Humidity 71    
Precipitation  
Precipitation 0.00 in - - ()
Sea Level Pressure  
Sea Level Pressure 30.10 in    
Wind  
Wind Speed 4 mph (South)    
Max Wind Speed 15 mph    
Max Gust Speed 23 mph    
Visibility 6 miles    
Events Snow    
Averages and records for this station are not official NWS values.
T = Trace of Precipitation, MM = Missing Value Source: NWS Daily Summary

Daily Weather History Graph

Daily Weather History Graph

Search for Another Location

Airport or City:

Trip Planner

Search our weather history database for the weather conditions in past years. The results will help you decide how hot, cold, wet, or windy it might be!

Date:

Astronomy

Dec. 30, 2013 Rise Set
Actual Time 8:19 AM EST 5:05 PM EST
Civil Twilight 7:45 AM EST 5:39 PM EST
Nautical Twilight 7:07 AM EST 6:17 PM EST
Astronomical Twilight 6:31 AM EST 6:53 PM EST
Moon 6:05 AM EST (12/30) 3:40 PM EST (12/30)
Length of Visible Light 9h 54m
Length of Day
8h 46m
Waning Crescent, 5% of the Moon is Illuminated
Dec 30
Waning Crescent
Jan 1
New
Jan 7
First Quarter
Jan 15
Full
Jan 24
Last Quarter

Hourly Weather History & Observations

Time (EST) Temp. Windchill Dew Point Humidity Pressure Visibility Wind Dir Wind Speed Gust Speed Precip Events Conditions
12:14 AM 8.8 °F - 1.2 °F 71% 30.04 in 10.0 mi Calm Calm - N/A   Mostly Cloudy
12:35 AM 8.6 °F - 1.4 °F 73% 30.04 in 10.0 mi Calm Calm - N/A   Mostly Cloudy
12:55 AM 8.6 °F - 1.9 °F 74% 30.04 in 10.0 mi Calm Calm - N/A   Mostly Cloudy
1:14 AM 8.8 °F - 2.3 °F 75% 30.04 in 7.0 mi Calm Calm - N/A   Overcast
1:35 AM 8.6 °F - 2.7 °F 77% 30.04 in 5.0 mi Calm Calm - N/A   Haze
1:55 AM 8.4 °F -2.8 °F 2.3 °F 76% 30.04 in 7.0 mi North 6.9 mph - N/A   Overcast
2:14 AM 8.4 °F -1.6 °F 2.1 °F 76% 30.05 in 10.0 mi North 5.8 mph - N/A   Overcast
2:35 AM 8.4 °F 1.8 °F 1.9 °F 75% 30.05 in 10.0 mi North 3.5 mph - N/A   Overcast
2:55 AM 8.4 °F 1.8 °F 1.9 °F 75% 30.06 in 10.0 mi North 3.5 mph - N/A   Overcast
3:14 AM 8.4 °F - 2.3 °F 76% 30.07 in 10.0 mi Calm Calm - N/A   Overcast
3:35 AM 8.4 °F - 2.7 °F 77% 30.07 in 10.0 mi Calm Calm - N/A   Overcast
3:55 AM 8.4 °F - 3.0 °F 79% 30.08 in 7.0 mi Calm Calm - N/A   Overcast
4:14 AM 8.4 °F - 3.2 °F 79% 30.08 in 4.0 mi Calm Calm - N/A Snow Light Snow
4:35 AM 8.4 °F - 3.7 °F 81% 30.08 in 2.5 mi Calm Calm - N/A Snow Light Snow
4:54 AM 8.4 °F - 4.1 °F 83% 30.08 in 3.0 mi Calm Calm - N/A Snow Light Snow
5:15 AM 8.4 °F - 4.1 °F 83% 30.08 in 7.0 mi Calm Calm - N/A   Overcast
5:35 AM 8.4 °F - 4.5 °F 84% 30.09 in 7.0 mi Calm Calm - N/A   Overcast
5:54 AM 8.4 °F -0.1 °F 4.5 °F 84% 30.09 in 5.0 mi NE 4.6 mph - N/A Snow Light Snow
6:15 AM 8.4 °F -2.8 °F 4.8 °F 85% 30.10 in 5.0 mi ENE 6.9 mph - N/A Snow Light Snow
6:35 AM 6.4 °F -3.9 °F 2.7 °F 84% 30.11 in 5.0 mi ENE 5.8 mph - N/A Snow Light Snow
6:54 AM 6.4 °F -6.3 °F 2.7 °F 84% 30.11 in 10.0 mi ENE 8.1 mph - N/A   Overcast
7:15 AM 6.4 °F -3.9 °F 2.3 °F 83% 30.11 in 10.0 mi ENE 5.8 mph - N/A   Overcast
7:35 AM 7.3 °F -2.8 °F 3.2 °F 83% 30.12 in 10.0 mi East 5.8 mph - N/A   Overcast
7:54 AM 6.6 °F -2.2 °F 2.7 °F 84% 30.13 in 10.0 mi East 4.6 mph - N/A   Overcast
8:15 AM 6.6 °F -3.7 °F 2.8 °F 84% 30.13 in 10.0 mi ENE 5.8 mph - N/A   Overcast
8:35 AM 7.5 °F - 3.7 °F 85% 30.14 in 10.0 mi Calm Calm - N/A   Overcast
8:54 AM 8.4 °F -0.1 °F 4.8 °F 85% 30.14 in 10.0 mi East 4.6 mph - N/A   Overcast
9:15 AM 8.4 °F -1.6 °F 4.8 °F 85% 30.15 in 7.0 mi East 5.8 mph - N/A   Overcast
9:35 AM 8.4 °F -0.1 °F 4.8 °F 85% 30.16 in 5.0 mi East 4.6 mph - N/A   Overcast
9:54 AM 8.4 °F -0.1 °F 4.8 °F 85% 30.17 in 4.0 mi ENE 4.6 mph - N/A Snow Light Snow
10:15 AM 8.4 °F -0.1 °F 4.8 °F 85% 30.17 in 1.8 mi ENE 4.6 mph - N/A Snow Light Snow
10:35 AM 8.4 °F -0.1 °F 4.8 °F 85% 30.18 in 1.2 mi ENE 4.6 mph - N/A Snow Light Snow
10:54 AM 8.6 °F 0.1 °F 5.2 °F 86% 30.18 in 0.8 mi ENE 4.6 mph - N/A Snow Snow
11:15 AM 8.8 °F -1.1 °F 5.5 °F 87% 30.18 in 1.0 mi ENE 5.8 mph - N/A Snow Light Snow
11:35 AM 10.0 °F 1.8 °F 6.6 °F 86% 30.18 in 0.5 mi East 4.6 mph - N/A Snow Light Snow
11:54 AM 10.8 °F - 7.3 °F 86% 30.17 in 1.0 mi Calm Calm - N/A Snow Light Snow
12:15 PM 10.9 °F - 7.7 °F 87% 30.16 in 0.5 mi Calm Calm - N/A Snow Snow
12:35 PM 10.9 °F - 7.7 °F 87% 30.16 in 0.2 mi Calm Calm - N/A Snow Heavy Snow
12:54 PM 10.9 °F - 7.9 °F 87% 30.15 in 0.8 mi Calm Calm - N/A Snow Snow
1:15 PM 12.2 °F 4.3 °F 9.5 °F 89% 30.14 in 1.0 mi West 4.6 mph - N/A Snow Light Snow
1:35 PM 14.4 °F 0.2 °F 9.1 °F 80% 30.13 in 1.8 mi SW 12.7 mph 18.4 mph N/A Snow Light Snow
1:54 PM 13.8 °F -0.5 °F 7.7 °F 77% 30.13 in 4.0 mi SW 12.7 mph 18.4 mph N/A Snow Light Snow
2:15 PM 13.6 °F 0.0 °F 7.9 °F 78% 30.13 in 5.0 mi SW 11.5 mph 19.6 mph N/A Snow Light Snow
2:35 PM 13.5 °F 0.5 °F 7.0 °F 75% 30.12 in 3.0 mi SW 10.4 mph 19.6 mph N/A Snow Light Snow
2:55 PM 13.5 °F 0.5 °F 7.7 °F 78% 30.11 in 3.0 mi SW 10.4 mph 17.3 mph N/A Snow Light Snow
3:15 PM 13.5 °F -0.9 °F 8.6 °F 81% 30.11 in 2.5 mi SW 12.7 mph 18.4 mph N/A Snow Light Snow
3:34 PM 13.6 °F 0.7 °F 8.2 °F 79% 30.11 in 4.0 mi SW 10.4 mph 21.9 mph N/A Snow Light Snow
3:55 PM 13.5 °F -0.2 °F 8.6 °F 81% 30.11 in 2.0 mi SSW 11.5 mph 18.4 mph N/A Snow Light Snow
4:15 PM 13.5 °F 0.5 °F 8.4 °F 80% 30.11 in 2.0 mi SW 10.4 mph 20.7 mph N/A Snow Light Snow
4:34 PM 13.5 °F 0.5 °F 8.2 °F 80% 30.11 in 4.0 mi SW 10.4 mph 20.7 mph N/A Snow Light Snow
4:55 PM 13.6 °F -0.7 °F 8.2 °F 79% 30.10 in 2.5 mi WSW 12.7 mph 17.3 mph N/A Snow Light Snow
5:15 PM 13.6 °F 1.6 °F 7.2 °F 75% 30.11 in 10.0 mi SSW 9.2 mph 17.3 mph N/A   Overcast
5:34 PM 13.6 °F 2.5 °F 7.3 °F 76% 30.10 in 5.0 mi SW 8.1 mph - N/A Snow Light Snow
5:55 PM 13.5 °F 3.3 °F 7.3 °F 77% 30.09 in 7.0 mi SSW 6.9 mph - N/A Snow Light Snow
6:15 PM 13.6 °F 2.5 °F 8.4 °F 80% 30.09 in 10.0 mi SSW 8.1 mph - N/A   Overcast
6:34 PM 13.6 °F 0.7 °F 8.8 °F 81% 30.09 in 7.0 mi SSW 10.4 mph - N/A   Overcast
6:55 PM 13.5 °F 3.3 °F 9.3 °F 84% 30.09 in 4.0 mi SSW 6.9 mph - N/A Snow Light Snow
7:15 PM 13.5 °F 4.4 °F 9.3 °F 84% 30.09 in 4.0 mi SSW 5.8 mph - N/A Snow Light Snow
7:34 PM 13.5 °F 4.4 °F 8.6 °F 81% 30.08 in 10.0 mi South 5.8 mph - N/A   Overcast
7:55 PM 13.5 °F 2.2 °F 8.4 °F 80% 30.08 in 10.0 mi SSW 8.1 mph - N/A   Overcast
8:15 PM 13.5 °F 2.2 °F 7.9 °F 78% 30.08 in 10.0 mi SSW 8.1 mph - N/A   Overcast
8:34 PM 13.5 °F 2.2 °F 7.3 °F 77% 30.07 in 10.0 mi SSW 8.1 mph - N/A Snow Light Snow
8:55 PM 13.5 °F - 7.5 °F 77% 30.06 in 10.0 mi Calm Calm - N/A   Overcast
9:15 PM 13.5 °F - 7.7 °F 78% 30.06 in 10.0 mi Calm Calm - N/A   Overcast
9:34 PM 13.5 °F 4.4 °F 8.6 °F 81% 30.05 in 10.0 mi South 5.8 mph - N/A   Overcast
9:55 PM 13.5 °F 1.3 °F 8.8 °F 82% 30.04 in 10.0 mi SSW 9.2 mph - N/A   Overcast
10:15 PM 13.5 °F 3.3 °F 9.1 °F 83% 30.04 in 7.0 mi SSW 6.9 mph - N/A   Overcast
10:34 PM 13.5 °F 3.3 °F 9.3 °F 84% 30.03 in 5.0 mi SSW 6.9 mph - N/A   Overcast
10:55 PM 13.5 °F 0.5 °F 9.5 °F 84% 30.03 in 4.0 mi SSW 10.4 mph 16.1 mph N/A Snow Light Snow
11:15 PM 13.5 °F 0.5 °F 9.5 °F 84% 30.02 in 5.0 mi SW 10.4 mph 18.4 mph N/A   Overcast
11:34 PM 13.5 °F -2.1 °F 10.2 °F 87% 30.01 in 2.0 mi SW 15.0 mph 23.0 mph N/A Snow Light Snow
11:55 PM 13.5 °F -0.2 °F 10.2 °F 87% 30.01 in 2.0 mi SW 11.5 mph 19.6 mph N/A Snow Light Snow